Location: Unspecified
(0.0000°N, 0.0000°E)
Time: 20:45:33
(UTC+00:00)

Tiangong 2 - Visible Passes

Search period start: 18 October 2018 00:00
Search period end: 28 October 2018 00:00
Orbit: 384 x 393 km, 42.8° (Epoch: 18 October)

Date Brightness Start Highest point End Pass type
(mag) Time Alt. Az. Time Alt. Az. Time Alt. Az.
18 Oct 3.5 18:47:10 10° SSE 18:47:52 11° SSE 18:47:52 11° SSE visible
19 Oct 3.1 19:23:40 10° SW 19:25:14 26° SW 19:25:14 26° SW visible
20 Oct 2.0 18:25:39 10° SSW 18:28:32 32° SE 18:30:19 18° E visible
21 Oct 3.0 19:04:14 10° WSW 19:06:52 24° NW 19:07:45 21° NNW visible
22 Oct 1.3 18:05:24 10° SW 18:08:33 72° NW 18:11:42 10° NE visible
24 Oct 3.3 04:38:35 11° N 04:40:58 22° NE 04:43:33 10° E visible
25 Oct 1.9 05:16:19 10° WNW 05:19:17 36° SW 05:22:17 10° SSE visible
26 Oct 1.2 04:20:59 72° NE 04:20:59 72° NE 04:24:06 10° SE visible
27 Oct 3.3 04:58:15 12° WSW 04:59:15 13° SW 05:00:53 10° SSW visible
